Printer-friendly version

IAU Minor Planet Center

Minor Planet Center

MPEC 2002-U40 : 2000 CJ105

The following Minor Planet Electronic Circular may be linked-to from your own Web pages, but must not otherwise be redistributed electronically.


Read MPEC 2002-U39 Read MPEC 2002-U41


M.P.E.C. 2002-U40                                Issued 2002 Oct. 28, 20:42 UT

     The Minor Planet Electronic Circulars contain information on unusual
         minor planets and routine data on comets.  They are published
   on behalf of Commission 20 of the International Astronomical Union by the
          Minor Planet Center, Smithsonian Astrophysical Observatory,
                          Cambridge, MA 02138, U.S.A.

             Prepared using the Tamkin Foundation Computer Network

                              MPC@CFA.HARVARD.EDU
          URL http://cfa-www.harvard.edu/iau/mpc.html  ISSN 1523-6714

                                  2000 CJ105

                           Revision to MPEC 2000-F02

Observations:
     K00CA5J  C2002 02 08.37609 11 04 53.91 +08 02 29.8          22.2 R      695
     K00CA5J  C2002 02 08.50852 11 04 53.42 +08 02 33.2                      695
     K00CA5J  C2002 04 11.20322 11 00 58.78 +08 28 51.4          21.3 R      695
     K00CA5J  C2002 04 11.26419 11 00 58.60 +08 28 52.5                      695

Observer details:
695 Kitt Peak.  Observers R. L. Millis, M. W. Buie, R. M. Wagner.  Measurers
    M. W. Buie, R. L. Millis, L. H. Wasserman, J. L. Elliot, S. D. Kern,
    A. B. Jordan, E. Chiang, D. E. Trilling, K. D. Clancy.  4-m reflector
    + CCD.

First and last observations above in comparison with prediction:
Residuals in seconds of arc (or two decimals in degrees) and reference
020208 695 0.12- 0.05+    020411 695 0.12- 0.05+    MPC 39601

Orbital elements:
2000 CJ105
Epoch 2002 Nov. 22.0 TT = JDT 2452600.5                 MPC
M 134.48181              (2000.0)            P               Q
n   0.00333401     Peri.  228.49134     +0.91618011     -0.39112597
a  44.3770377      Node   154.16857     +0.40064133     +0.88840649
e   0.1013479      Incl.   11.56789     +0.01002605     +0.24032141
P 296              H    5.4           G   0.15           U   5
Residuals in seconds of arc
000205 695  0.0   0.1+    000301 695  0.4+  0.1-    020208 695  0.1-  0.1-
000205 695  0.0   0.1-    000301 695  0.2-  0.1+    020411 695  0.1-  0.1+
000301 695  0.2-  0.0     020208 695  0.0   0.0     020411 695  0.1+  0.0

Ephemeris:
2000 CJ105               a,e,i = 44.38, 0.10, 12                 q = 39.880
Date    TT    R. A. (2000) Decl.     Delta      r     Elong.  Phase     V
2002 10 23    11 08.95   +07 42.3   48.441   47.732    44.2     0.8    22.4
2002 11 02    11 09.56   +07 39.2   48.311   47.734    54.0     1.0    22.4
2002 11 12    11 10.07   +07 36.8   48.164   47.736    63.9     1.1    22.4
2002 11 22    11 10.46   +07 35.1   48.003   47.737    73.8     1.1    22.4
2002 12 02    11 10.73   +07 34.3   47.834   47.739    83.9     1.2    22.4
2002 12 12    11 10.86   +07 34.3   47.662   47.740    94.0     1.2    22.4
2002 12 22    11 10.86   +07 35.2   47.492   47.742   104.2     1.1    22.3
2003 01 01    11 10.73   +07 36.9   47.329   47.744   114.4     1.1    22.3
2003 01 11    11 10.46   +07 39.4   47.179   47.745   124.6     1.0    22.3
2003 01 21    11 10.08   +07 42.5   47.047   47.747   134.9     0.8    22.3
2003 01 31    11 09.60   +07 46.3   46.936   47.748   145.2     0.7    22.3
2003 02 10    11 09.04   +07 50.4   46.851   47.750   155.5     0.5    22.2
2003 02 20    11 08.41   +07 54.9   46.793   47.752   165.7     0.3    22.2
2003 03 02    11 07.75   +07 59.5   46.765   47.753   175.5     0.1    22.2
2003 03 12    11 07.08   +08 04.1   46.768   47.755   173.4     0.1    22.2
2003 03 22    11 06.42   +08 08.5   46.801   47.756   163.5     0.3    22.2
2003 04 01    11 05.79   +08 12.6   46.862   47.758   153.4     0.5    22.3
2003 04 11    11 05.23   +08 16.2   46.951   47.760   143.5     0.7    22.3
2003 04 21    11 04.74   +08 19.2   47.063   47.761   133.6     0.9    22.3
2003 05 01    11 04.36   +08 21.6   47.196   47.763   123.7     1.0    22.3
2003 05 11    11 04.08   +08 23.3   47.345   47.764   114.0     1.1    22.3
2003 05 21    11 03.92   +08 24.1   47.506   47.766   104.3     1.2    22.3
2003 05 31    11 03.89   +08 24.2   47.673   47.768    94.7     1.2    22.4
2003 06 10    11 03.99   +08 23.4   47.844   47.769    85.2     1.2    22.4
2003 06 20    11 04.21   +08 21.9   48.012   47.771    75.7     1.2    22.4
2003 06 30    11 04.55   +08 19.7   48.173   47.772    66.3     1.1    22.4
2003 07 10    11 05.01   +08 16.7   48.322   47.774    56.9     1.0    22.4
2003 07 20    11 05.57   +08 13.2   48.456   47.775    47.5     0.9    22.4
2003 07 30    11 06.23   +08 09.2   48.572   47.777    38.1     0.8    22.4

Brian G. Marsden             (C) Copyright 2002 MPC           M.P.E.C. 2002-U40

Read MPEC 2002-U39 Read MPEC 2002-U41


Our Web policy. Index to the CBAT/MPC/ICQ pages.


Valid HTML 4.01!